Date String (YYYY-MM-DD hh:mm:ss) UTC,Instrument flags,Ambient pressure (hPa),Sample flow (lpm),Bypass flow (lpm),Sample temperature (°C),Ambient temperature (°C),ASC tube jacket temperature (°C),LED temperature (°C),Box temperature (°C),Sample RH (%),Span deviation,Mass concentration (μg/m³),Mass concentration (μg/m³),Mass concentration (μg/m³)
DateTimeUTC,F1_M11,P_M11,Q1_M11,Q2_M11,T1_M11,T2_M11,T3_M11,T4_M11,T5_M11,U1_M11,ZSPAN_M11,X0_M11,X2_M11,X1_M11
2023-04-22 11:00:00,,0834.0,5.00,0.00,22.8,21.2,00.0,31.3,24.2,14.9,0000.0,0008.91,0005.32,0004.77
2023-04-22 11:01:00,,0834.0,5.00,0.00,22.8,21.1,00.0,31.2,24.2,14.9,0000.0,0008.85,0005.34,0004.78
2023-04-22 11:02:00,,0834.0,5.00,0.00,22.7,21.0,00.0,31.2,24.1,15.0,0000.0,0008.52,0005.35,0004.77
2023-04-22 11:03:00,,0834.0,5.00,0.00,22.7,20.9,00.0,31.2,24.1,15.0,0000.0,0008.29,0005.34,0004.76
2023-04-22 11:04:00,,0834.0,5.00,0.00,22.7,20.9,00.0,31.2,24.1,15.0,0000.0,0008.38,0005.36,0004.75
2023-04-22 11:05:00,,0834.0,5.00,0.00,22.6,20.8,00.0,31.2,24.0,15.0,0000.0,0008.84,0005.35,0004.74
2023-04-22 11:06:00,,0834.0,5.00,0.00,22.6,20.7,00.0,31.1,23.9,15.1,0000.0,0008.84,0005.33,0004.74
2023-04-22 11:07:00,,0834.0,5.01,0.00,22.6,21.0,00.0,31.1,24.1,15.1,0000.0,0008.87,0005.35,0004.75
2023-04-22 11:08:00,,0834.1,5.00,0.00,22.7,22.1,00.0,31.0,24.5,15.0,0000.0,0008.82,0005.38,0004.77
2023-04-22 11:09:00,,0834.0,5.00,0.00,22.8,23.0,00.0,31.0,24.8,14.9,0000.0,0008.77,0005.38,0004.78
2023-04-22 11:10:00,,0834.0,5.00,0.00,22.9,23.1,00.0,31.1,24.7,14.8,0000.0,0008.68,0005.35,0004.79
2023-04-22 11:11:00,,0834.0,5.00,0.00,22.9,22.7,00.0,31.1,24.6,14.8,0000.0,0008.78,0005.40,0004.82
2023-04-22 11:12:00,,0834.0,4.99,0.00,22.8,22.3,00.0,31.2,24.4,14.8,0000.0,0008.81,0005.41,0004.82
2023-04-22 11:13:00,,0834.0,5.00,0.00,22.8,21.9,00.0,31.2,24.3,14.8,0000.0,0008.86,0005.41,0004.83
2023-04-22 11:14:00,,0833.9,5.01,0.00,22.7,21.6,00.0,31.2,24.2,14.9,0000.0,0008.86,0005.42,0004.84
2023-04-22 11:15:00,,0833.9,4.99,0.00,22.7,21.3,00.0,31.2,24.1,14.9,0000.0,0008.84,0005.42,0004.84
2023-04-22 11:16:00,,0834.0,5.00,0.00,22.6,21.1,00.0,31.2,24.0,14.9,0000.0,0008.42,0005.40,0004.83
2023-04-22 11:17:00,,0834.0,5.01,0.00,22.6,21.0,00.0,31.1,24.0,14.9,0000.0,0008.25,0005.38,0004.80
2023-04-22 11:18:00,,0834.0,5.00,0.00,22.6,20.9,00.0,31.1,24.0,15.0,0000.0,0008.29,0005.39,0004.78
2023-04-22 11:19:00,,0834.0,5.00,0.00,22.5,20.8,00.0,31.1,23.9,15.1,0000.0,0008.09,0005.30,0004.74
2023-04-22 11:20:00,,0834.0,5.00,0.00,22.5,20.7,00.0,31.1,23.9,15.1,0000.0,0007.97,0005.21,0004.69
2023-04-22 11:21:00,,0834.0,4.99,0.00,22.5,20.8,00.0,31.0,23.9,15.1,0000.0,0008.01,0005.19,0004.65
2023-04-22 11:22:00,,0834.0,5.00,0.00,22.6,21.7,00.0,30.9,24.3,15.0,0000.0,0007.96,0005.15,0004.61
2023-04-22 11:23:00,,0834.1,5.00,0.00,22.7,22.8,00.0,30.9,24.7,14.9,0000.0,0007.95,0005.12,0004.58
2023-04-22 11:24:00,,0834.0,4.99,0.00,22.8,23.2,00.0,31.0,24.8,14.7,0000.0,0007.85,0005.07,0004.55
2023-04-22 11:25:00,,0834.0,4.99,0.00,22.8,22.9,00.0,31.1,24.6,14.7,0000.0,0007.87,0005.03,0004.52
2023-04-22 11:26:00,,0834.0,5.00,0.00,22.8,22.5,00.0,31.1,24.4,14.7,0000.0,0007.94,0005.02,0004.48
2023-04-22 11:27:00,,0834.0,5.01,0.00,22.8,22.1,00.0,31.1,24.3,14.6,0000.0,0007.88,0004.97,0004.45
2023-04-22 11:28:00,,0834.0,5.00,0.00,22.7,21.8,00.0,31.1,24.2,14.6,0000.0,0007.85,0004.94,0004.40
2023-04-22 11:29:00,,0833.9,5.00,0.00,22.7,21.6,00.0,31.1,24.1,14.6,0000.0,0007.79,0004.89,0004.36
2023-04-22 11:30:00,,0833.9,5.00,0.00,22.7,21.4,00.0,31.1,24.1,14.6,0000.0,0007.88,0004.87,0004.32
2023-04-22 11:31:00,,0833.9,5.00,0.00,22.6,21.1,00.0,31.1,24.0,14.5,0000.0,0007.89,0004.86,0004.29
2023-04-22 11:32:00,,0833.9,5.00,0.00,22.6,20.9,00.0,31.1,24.0,14.5,0000.0,0007.84,0004.86,0004.27
2023-04-22 11:33:00,,0833.9,5.00,0.00,22.5,20.7,00.0,31.1,23.9,14.6,0000.0,0007.86,0004.86,0004.26
2023-04-22 11:34:00,,0833.9,5.00,0.00,22.5,20.6,00.0,31.0,23.8,14.6,0000.0,0007.88,0004.86,0004.24
2023-04-22 11:35:00,,0834.0,5.01,0.00,22.5,21.3,00.0,31.0,24.2,14.5,0000.0,0007.94,0004.88,0004.23
2023-04-22 11:36:00,,0834.0,5.00,0.00,22.7,22.4,00.0,30.9,24.6,14.4,0000.0,0007.98,0004.89,0004.23
2023-04-22 11:37:00,,0834.0,5.00,0.00,22.8,23.2,00.0,31.0,24.8,14.3,0000.0,0007.86,0004.87,0004.22
2023-04-22 11:38:00,,0833.9,4.99,0.00,22.9,23.0,00.0,31.0,24.6,14.2,0000.0,0007.83,0004.86,0004.21
2023-04-22 11:39:00,,0834.0,5.00,0.00,22.8,22.7,00.0,31.1,24.5,14.2,0000.0,0007.91,0004.88,0004.21
2023-04-22 11:40:00,,0833.9,5.00,0.00,22.8,22.3,00.0,31.1,24.4,14.2,0000.0,0007.87,0004.87,0004.21
2023-04-22 11:41:00,,0833.9,4.99,0.00,22.8,22.0,00.0,31.1,24.3,14.2,0000.0,0007.75,0004.84,0004.21
2023-04-22 11:42:00,,0833.9,5.00,0.00,22.8,21.8,00.0,31.1,24.3,14.2,0000.0,0007.85,0004.85,0004.22
2023-04-22 11:43:00,,0833.9,5.00,0.00,22.7,21.5,00.0,31.2,24.2,14.3,0000.0,0007.79,0004.83,0004.22
2023-04-22 11:44:00,,0833.9,5.00,0.00,22.7,21.3,00.0,31.1,24.1,14.3,0000.0,0007.77,0004.80,0004.22
2023-04-22 11:45:00,,0834.0,5.00,0.00,22.7,21.1,00.0,31.1,24.1,14.3,0000.0,0007.76,0004.80,0004.23
2023-04-22 11:46:00,,0833.9,5.00,0.00,22.6,21.0,00.0,31.1,24.0,14.3,0000.0,0007.78,0004.79,0004.23
2023-04-22 11:47:00,,0834.0,5.01,0.00,22.6,20.9,00.0,31.1,24.0,14.4,0000.0,0007.73,0004.76,0004.22
2023-04-22 11:48:00,,0833.9,5.01,0.00,22.6,20.9,00.0,31.1,24.0,14.4,0000.0,0007.73,0004.76,0004.23
2023-04-22 11:49:00,,0833.9,5.00,0.00,22.5,20.8,00.0,31.1,23.9,14.4,0000.0,0007.70,0004.74,0004.23
2023-04-22 11:50:00,,0834.0,5.00,0.00,22.5,20.8,00.0,31.1,23.9,14.5,0000.0,0007.67,0004.74,0004.24
2023-04-22 11:51:00,,0833.9,5.00,0.00,22.5,20.7,00.0,31.0,23.9,14.6,0000.0,0007.69,0004.77,0004.26
2023-04-22 11:52:00,,0833.9,4.99,0.00,22.4,20.6,00.0,31.0,23.8,14.6,0000.0,0007.77,0004.81,0004.27
2023-04-22 11:53:00,,0833.9,5.00,0.00,22.5,21.2,00.0,30.9,24.1,14.6,0000.0,0007.65,0004.79,0004.28
2023-04-22 11:54:00,,0834.0,5.00,0.00,22.6,22.2,00.0,30.9,24.5,14.5,0000.0,0007.65,0004.80,0004.29
2023-04-22 11:55:00,,0834.0,5.00,0.00,22.8,23.1,00.0,30.9,24.8,14.4,0000.0,0007.65,0004.82,0004.30
2023-04-22 11:56:00,,0834.0,4.99,0.00,22.8,23.0,00.0,31.0,24.7,14.4,0000.0,0007.52,0004.79,0004.29
2023-04-22 11:57:00,,0834.0,4.99,0.00,22.8,22.6,00.0,31.0,24.5,14.4,0000.0,0007.37,0004.78,0004.30
2023-04-22 11:58:00,,0834.0,5.00,0.00,22.8,22.2,00.0,31.1,24.3,14.4,0000.0,0007.46,0004.83,0004.32
2023-04-22 11:59:00,,0834.0,5.00,0.00,22.7,21.9,00.0,31.1,24.2,14.4,0000.0,0007.52,0004.87,0004.32
